Find Starlink 4447

NORAD ID: 53472 Int'l Des: 2022-099 Owner: SPXS Country: US Constellation: starlink operational
LEOCIRCULARRETROGRADESSO

Live Position

Loading 3D Globe...

About Starlink 4447

Description loading...

Upcoming Passes

Passes for default location (London). Set your location on the main map for personalized predictions.

Altitude History

Loading altitude history...

Two-Line Element Set

1 53472U 22099H 26130.05345847 -.00000446 00000-0 -26777-4 0 9990
2 53472 97.5109 250.4259 0000826 97.7027 262.4294 15.05652021205204
Epoch: May 10, 2026 • Age: 10 hours

Current Status

Altitude 551.8 km
Velocity 7.59 km/s
Sub-Earth Point 10.21°N, 142.27°W
Launch Date Aug 12, 2022
Age 3.7 years
Type internet

Technical Details

Classification Payload
Mass 300.00 kg
Dry Mass 275.00 kg
Total Mass 300.00 kg
Length 0.20 m
Diameter 2.80 m
Span 9.00 m
Shape Box + pan
Manufacturer SPXS
Bus Type Starlink
Phase Status In Orbit
Owner/State SPXS/US

Most Searched